Weather History for Wausau, WI

Change the Weather History Date:

Sunday, November 3, 2013

  Actual Average Record
Temperature  
Mean Temperature 37 °F 39 °F  
Max Temperature 47 °F 47 °F 72 °F (2008)
Min Temperature 27 °F 31 °F -1 °F (1951)
Degree Days  
Heating Degree Days 28 26  
Month to date heating degree days 80 77  
Since 1 July heating degree days 860 961  
Cooling Degree Days 0 0  
Month to date cooling degree days 0 0  
Year to date cooling degree days 506 407  
Moisture  
Dew Point 31 °F    
Average Humidity 77    
Maximum Humidity 100    
Minimum Humidity 53    
Precipitation  
Precipitation 0.00 in 0.08 in 1.02 in (1987)
Month to date precipitation 0.04 0.22  
Year to date precipitation 34.73 29.27  
Snow  
Snow 0.00 in 0.10 in 1.80 in (1951)
Month to date snowfall 0.0 0.3  
Since 1 July snowfall T 1.7  
Since 1 September snowfall T 1.7  
Snow Depth 0.00 in    
Sea Level Pressure  
Sea Level Pressure 30.22 in    
Wind  
Wind Speed 9 mph (SE)    
Max Wind Speed 18 mph    
Max Gust Speed 25 mph    
Visibility 7 miles    
Events Fog    
T = Trace of Precipitation, MM = Missing Value Source: NWS Daily Summary

Daily Weather History Graph

Daily Weather History Graph

Search for Another Location

Airport:

Trip Planner

Search our weather history database for the weather conditions in past years. The results will help you decide how hot, cold, wet, or windy it might be!

Date:

Astronomy

Nov. 03, 2013 Rise Set
Actual Time 6:39 AM CST 4:43 PM CST
Civil Twilight 6:09 AM CST 5:14 PM CST
Nautical Twilight 5:34 AM CST 5:49 PM CST
Astronomical Twilight 5:00 AM CST 6:23 PM CST
Moon 6:44 AM CST (11/3) 4:57 PM CST (11/3)
Length of Visible Light 11h 05m
Length of Day
10h 03m
New Moon, 0% of the Moon is Illuminated
Nov 3
New Moon
Nov 9
First Quarter
Nov 17
Full
Nov 25
Last Quarter
Dec 2
New

Hourly Weather History & Observations

Time (CST) Temp. Windchill Dew Point Humidity Pressure Visibility Wind Dir Wind Speed Gust Speed Precip Events Conditions
12:45 AM 30.2 °F - 28.4 °F 93% 30.13 in 8.0 mi Calm Calm - N/A   Mostly Cloudy
12:54 AM 30.0 °F - 28.0 °F 92% 30.18 in 9.0 mi Calm Calm - N/A   Mostly Cloudy
1:08 AM 30.2 °F - 28.4 °F 93% 30.14 in 10.0 mi Calm Calm - N/A   Mostly Cloudy
1:16 AM 30.2 °F - 30.2 °F 100% 30.14 in 10.0 mi Calm Calm - N/A   Mostly Cloudy
1:29 AM 32.0 °F 28.7 °F 30.2 °F 93% 30.15 in 1.8 mi SE 3.5 mph - N/A   Overcast
1:38 AM 32.0 °F 28.7 °F 32.0 °F 100% 30.15 in 0.2 mi SSE 3.5 mph - N/A Fog Fog
1:54 AM 32.0 °F 27.5 °F 32.0 °F 100% 30.20 in 0.2 mi SSE 4.6 mph - N/A Fog Fog
1:54 AM 32.0 °F 28.7 °F 32.0 °F 100% 30.21 in 0.2 mi East 3.5 mph - N/A Fog Fog
2:54 AM 30.9 °F - 30.9 °F 100% 30.23 in 0.2 mi Calm Calm - N/A Fog Light Freezing Fog
3:54 AM 30.0 °F - 28.9 °F 96% 30.24 in 0.2 mi Calm Calm - N/A Fog Light Freezing Fog
4:54 AM 28.9 °F - 28.9 °F 100% 30.25 in 0.2 mi Calm Calm - N/A Fog Light Freezing Fog
5:54 AM 28.0 °F - 27.0 °F 96% 30.25 in 1.0 mi Calm Calm - N/A   Overcast
6:01 AM 28.4 °F - 26.6 °F 93% 30.21 in 3.0 mi Calm Calm - N/A   Mostly Cloudy
6:16 AM 28.4 °F - 26.6 °F 93% 30.20 in 10.0 mi Calm Calm - N/A   Scattered Clouds
6:54 AM 28.0 °F - 27.0 °F 96% 30.27 in 10.0 mi Calm Calm - N/A   Clear
7:28 AM 30.2 °F 26.7 °F 28.4 °F 93% 30.22 in 10.0 mi SE 3.5 mph - N/A   Scattered Clouds
7:35 AM 30.2 °F - 28.4 °F 93% 30.22 in 10.0 mi Calm Calm - N/A   Mostly Cloudy
7:52 AM 30.2 °F 26.7 °F 30.2 °F 100% 30.23 in 10.0 mi ESE 3.5 mph - N/A   Overcast
7:54 AM 30.9 °F 27.5 °F 30.0 °F 96% 30.28 in 10.0 mi ESE 3.5 mph - N/A   Overcast
8:17 AM 32.0 °F 27.5 °F 30.2 °F 93% 30.23 in 1.8 mi SE 4.6 mph - N/A   Overcast
8:27 AM 32.0 °F 27.5 °F 32.0 °F 100% 30.23 in 0.5 mi SE 4.6 mph - N/A Fog Fog
8:54 AM 33.1 °F 26.9 °F 33.1 °F 100% 30.28 in 0.8 mi SE 6.9 mph - N/A   Overcast
9:03 AM 33.8 °F 27.7 °F 33.8 °F 100% 30.23 in 1.2 mi SE 6.9 mph - N/A   Overcast
9:14 AM 33.8 °F 27.0 °F 33.8 °F 100% 30.23 in 3.0 mi South 8.1 mph - N/A   Overcast
9:54 AM 36.0 °F 29.0 °F 35.1 °F 97% 30.29 in 10.0 mi South 9.2 mph - N/A   Overcast
10:04 AM 35.6 °F 29.2 °F 35.6 °F 100% 30.24 in 10.0 mi South 8.1 mph - N/A   Overcast
10:25 AM 37.4 °F 30.8 °F 35.6 °F 93% 30.24 in 10.0 mi South 9.2 mph - N/A   Overcast
10:54 AM 39.0 °F 31.0 °F 35.1 °F 86% 30.29 in 10.0 mi South 13.8 mph - N/A   Overcast
11:01 AM 39.2 °F 32.0 °F 35.6 °F 87% 30.23 in 10.0 mi SSE 11.5 mph - N/A   Mostly Cloudy
11:41 AM 41.0 °F 34.7 °F 33.8 °F 76% 30.22 in 10.0 mi SSE 10.4 mph 18.4 mph N/A   Mostly Cloudy
11:54 AM 41.0 °F 35.8 °F 34.0 °F 76% 30.27 in 10.0 mi SSE 8.1 mph - N/A   Mostly Cloudy
12:54 PM 44.1 °F 38.1 °F 32.0 °F 63% 30.24 in 10.0 mi SSE 11.5 mph - N/A   Mostly Cloudy
1:14 PM 46.4 °F 39.8 °F 32.0 °F 57% 30.18 in 10.0 mi SSE 16.1 mph - N/A   Mostly Cloudy
1:54 PM 46.0 °F 39.9 °F 32.0 °F 58% 30.22 in 10.0 mi SE 13.8 mph - N/A   Mostly Cloudy
2:54 PM 46.0 °F 39.9 °F 30.9 °F 56% 30.20 in 10.0 mi SSE 13.8 mph - N/A   Partly Cloudy
3:54 PM 44.1 °F 37.7 °F 30.9 °F 60% 30.20 in 10.0 mi SE 12.7 mph 21.9 mph N/A   Clear
4:54 PM 43.0 °F 36.8 °F 30.9 °F 62% 30.19 in 10.0 mi SE 11.5 mph - N/A   Mostly Cloudy
5:54 PM 42.1 °F 35.7 °F 32.0 °F 67% 30.19 in 10.0 mi SE 11.5 mph - N/A   Clear
6:54 PM 41.0 °F 33.9 °F 30.9 °F 67% 30.20 in 10.0 mi SE 12.7 mph - N/A   Clear
7:54 PM 39.9 °F 32.5 °F 34.0 °F 79% 30.20 in 10.0 mi SE 12.7 mph - N/A   Clear
8:54 PM 39.9 °F 31.4 °F 33.1 °F 77% 30.19 in 10.0 mi SE 16.1 mph 23.0 mph N/A   Clear
9:54 PM 39.9 °F 32.5 °F 32.0 °F 73% 30.18 in 10.0 mi SE 12.7 mph - N/A   Clear
10:54 PM 39.9 °F 31.8 °F 33.1 °F 77% 30.18 in 10.0 mi SE 15.0 mph - N/A   Clear